[[{"header":{"parameterUnit":"m.s-1","parameterCategory":1,"la1":30.2991,"la2":30.254,"lo1":-89.0895,"lo2":-89.0444,"dy":0.0017,"dx":0.0017,"nx":28,"ny":28,"refTime":"2023-08-06T21:00:00:Z","depth":0,"parameterNumber":2,"parameterNumberName":"U-component_of_WINDS"},"data":[0,0,0,0,0,0,0,0,0,0,0,0,0,0,0,0,0,0,0,0,0,0,0,0,0,0,0,0,0,0,0,0,0,0,0,0,0,0,0,0,0,0,0,0,0,0,0,0,0,0,0,0,0,0,0,0,0,0,5.5423,5.5425,0,5.5588,5.5589,5.5591,5.5537,5.5533,5.553,5.5526,5.5696,5.5703,5.5711,0,0,0,0,0,0,0,0,0,0,0,0,0,5.5061,5.5068,5.5423,5.5425,5.5427,5.5587,5.559,5.5592,5.5538,5.5533,5.5529,5.5525,5.5693,5.5702,5.5712,0,0,0,0,0,0,0,0,0,0,0,0,0,5.5221,5.507,5.5423,5.5419,5.5421,5.5587,5.559,5.5592,5.5538,5.5533,5.5528,5.5523,5.569,5.5701,5.5713,5.5892,0,0,5.5749,5.5754,0,0,0,0,0,0,0,0,5.5212,5.5234,5.5418,5.542,5.5422,5.5536,5.5524,5.5693,5.554,5.5494,5.5526,5.552,5.5647,5.5662,5.5704,5.59,5.5908,5.575,5.5757,5.5762,5.5765,0,0,0,0,0,0,0,5.5201,5.5227,5.5488,5.542,5.5423,5.5409,5.5426,5.5556,5.5598,5.5497,5.5494,5.5514,5.5647,5.5693,5.5708,5.591,5.5749,5.576,5.5767,5.5772,5.6258,5.6264,0,0,0,0,0,0,5.5189,5.5218,5.5483,5.5493,5.5302,5.542,5.5439,5.5505,5.5597,5.5606,5.5518,5.5511,5.5676,5.5694,5.5714,5.5927,5.5762,5.5773,5.578,5.6253,5.626,5.6266,0,0,0,0,0,0,5.5181,5.5213,5.5476,5.5355,5.5387,5.5432,5.5506,5.5511,5.5557,5.5613,5.562,5.5558,5.5672,5.5697,5.5848,5.5933,5.5778,5.5789,5.6246,5.6255,5.6263,5.6358,0,0,0,0,0,0,5.5171,5.5211,5.528,5.5357,5.5394,5.5608,5.5512,5.5518,5.5577,5.5569,5.5652,5.566,5.567,5.583,5.5859,5.5946,5.5798,5.6238,5.625,5.626,5.6347,5.6369,5.6387,0,0,0,0,0,5.5158,5.5301,5.5283,5.5316,5.5481,5.5613,5.5634,5.5642,5.5585,5.5654,5.5689,5.5658,5.5919,5.5846,5.5878,5.597,5.6233,5.6246,5.6259,5.6338,5.6365,5.6387,0,0,0,0,0,0,5.5233,5.5311,5.5292,5.5464,5.5532,5.5603,5.5691,5.5671,5.5757,5.5745,5.5752,5.5771,5.5925,5.5963,5.588,5.6147,5.6067,5.6088,5.6116,5.6142,5.6162,5.6148,5.5808,0,0,0,0,0,5.527,5.537,5.5433,5.5578,5.5613,5.5647,5.5704,5.5705,5.5775,5.5804,5.5851,5.5921,5.6018,5.6083,5.6176,5.6353,5.6369,5.6432,5.6452,5.6468,5.6485,5.6579,5.6606,5.631,5.6309,5.6309,0,0,5.5346,5.5401,5.5464,5.5594,5.5647,5.575,5.5671,5.5785,5.5861,5.5822,5.5965,5.6002,5.6081,5.6245,5.6319,5.6281,5.657,5.6485,5.6497,5.6505,5.6595,5.6623,5.6648,5.6319,5.6317,5.6315,0,0,5.5537,5.559,5.5715,5.5769,5.585,5.5871,5.5901,5.5976,5.5998,5.6143,5.6114,5.6205,5.6374,5.643,5.6481,5.6692,5.6665,5.6722,5.6826,5.6918,5.6941,5.6962,5.7034,5.7061,5.6739,5.674,5.674,0,5.5622,5.5776,5.5782,5.5897,5.5954,5.5923,5.6049,5.6102,5.6209,5.6249,5.6204,5.6414,5.6465,5.664,5.6691,5.6734,5.6767,5.6712,5.6937,5.6958,5.6977,5.7047,5.7074,5.6746,5.6745,5.6745,5.6744,0,5.5875,5.5982,5.6074,5.6177,5.6245,5.6365,5.6388,5.6456,5.6451,5.6476,5.6622,5.6682,5.6786,5.6828,5.6824,5.7002,5.6976,5.6935,5.6854,5.7012,5.7077,5.7104,5.6755,5.6753,5.6751,5.6749,0,0,5.6118,5.6221,5.6255,5.63,5.6386,5.6469,5.6587,5.6687,5.6744,5.6819,5.6917,5.706,5.7022,5.7079,5.7082,5.7162,5.7322,5.7111,5.7113,5.7146,5.7519,5.7547,5.7578,5.7305,5.7311,5.7315,5.7511,0,5.6314,5.6521,5.6529,5.6717,5.6815,5.6786,5.6889,5.6952,5.6979,5.7066,5.7096,5.7196,5.7139,5.7173,5.7252,5.7286,5.7396,5.7272,5.7395,5.7399,5.7374,5.7613,5.7644,5.7827,5.7537,5.7542,5.7545,0,5.6571,5.6652,5.685,5.6919,5.6961,5.7053,5.7144,5.7228,5.7299,5.7313,5.7376,5.7366,5.7486,5.7403,5.7566,5.7482,5.7533,5.7557,5.7564,5.7574,5.748,5.7627,5.7886,5.7912,5.7585,5.7582,5.7579,0,5.6724,5.6884,5.7022,5.7062,5.7148,5.7212,5.7251,5.7316,5.7375,5.7456,5.7494,5.7587,5.7638,5.771,5.7725,5.7664,5.7889,5.7807,5.7902,5.7901,5.7949,5.7945,5.8217,5.7986,5.7986,5.7985,5.7985,0,5.6942,5.7063,5.7092,5.7177,5.7311,5.7319,5.7452,5.7486,5.7545,5.7635,5.7616,5.7701,5.7717,5.7805,5.7818,5.795,5.7974,5.7987,5.7989,5.7988,5.7986,5.802,5.8006,5.7992,5.7991,5.7989,5.7988,0,5.7136,5.716,5.7308,5.7376,5.7396,5.7492,5.755,5.7631,5.7655,5.7769,5.7797,5.7835,5.7937,5.796,5.8083,5.8091,5.8247,5.8237,5.8223,5.8221,5.8313,5.8303,5.8614,5.8654,5.8399,5.8402,5.8404,0,5.7271,5.7364,5.7441,5.75,5.7541,5.7637,5.7696,5.7707,5.777,5.7857,5.7927,5.8027,5.8108,5.8273,5.8311,5.8404,5.8395,5.8498,5.8409,5.8404,5.8393,5.8387,5.8395,5.8514,5.8517,5.8519,5.8521,0,5.7509,5.7516,5.7602,5.7693,5.7764,5.7836,5.7905,5.7954,5.7974,5.8046,5.815,5.8212,5.8336,5.8435,5.8528,5.8567,5.8547,5.8549,5.8575,5.8573,5.856,5.8566,5.8266,5.8541,5.8539,5.8537,5.8536,5.8536,5.7676,5.7756,5.7822,5.7919,5.7971,5.8035,5.8113,5.8147,5.8233,5.8334,5.8336,5.8449,5.8516,5.8638,5.8683,5.8771,5.8739,5.8778,5.8787,5.8796,5.8802,5.8548,5.8788,5.8787,5.8787,5.8787,5.8786,0,5.791,5.7951,5.804,5.8135,5.8211,5.8185,5.8259,5.8323,5.8423,5.8487,5.8566,5.8684,5.878,5.8826,5.892,5.8981,5.8974,5.9006,5.9,5.9009,5.8827,5.8794,5.9009,5.9009,5.9009,5.9009,5.9009,5.9009,5.8041,5.8173,5.8188,5.8346,5.8386,5.8495,5.854,5.8598,5.8648,5.8781,5.886,5.8889,5.8945,5.9043,5.9129,5.914,5.9174,5.9209,5.9216,5.9045,5.9022,5.9,5.8968,5.9217,5.9218,5.9389,5.9391,5.9392]},{"header":{"parameterUnit":"m.s-1","parameterCategory":1,"la1":30.2991,"la2":30.254,"lo1":-89.0895,"lo2":-89.0444,"dy":0.0017,"dx":0.0017,"nx":28,"ny":28,"refTime":"2023-08-06T21:00:00:Z","depth":0,"parameterNumber":3,"parameterNumberName":"V-component_of_WINDS"},"data":[0,0,0,0,0,0,0,0,0,0,0,0,0,0,0,0,0,0,0,0,0,0,0,0,0,0,0,0,0,0,0,0,0,0,0,0,0,0,0,0,0,0,0,0,0,0,0,0,0,0,0,0,0,0,0,0,0,0,2.2119,2.212,0,2.2203,2.2204,2.2205,2.2193,2.2192,2.2191,2.2189,2.2275,2.2278,2.2282,0,0,0,0,0,0,0,0,0,0,0,0,0,2.1949,2.1952,2.2119,2.212,2.2121,2.2203,2.2204,2.2205,2.2194,2.2192,2.219,2.2189,2.2274,2.2278,2.2282,0,0,0,0,0,0,0,0,0,0,0,0,0,2.2027,2.1953,2.2119,2.2125,2.2127,2.2203,2.2204,2.2205,2.2194,2.2192,2.219,2.2188,2.2272,2.2277,2.2283,2.2357,0,0,2.2299,2.2301,0,0,0,0,0,0,0,0,2.2022,2.2033,2.2124,2.2125,2.2127,2.2186,2.2175,2.2256,2.2194,2.2168,2.2189,2.2187,2.2247,2.2254,2.2274,2.2361,2.2365,2.23,2.2303,2.2305,2.2307,0,0,0,0,0,0,0,2.2017,2.2029,2.2152,2.2125,2.2127,2.2124,2.2133,2.2191,2.2218,2.2171,2.217,2.218,2.2247,2.2269,2.2276,2.2366,2.2299,2.2304,2.2307,2.231,2.2518,2.252,0,0,0,0,0,0,2.201,2.2025,2.215,2.2155,2.2068,2.2129,2.2138,2.2169,2.2218,2.2223,2.2182,2.2179,2.2261,2.227,2.2279,2.2369,2.2305,2.231,2.2313,2.2515,2.2518,2.2521,0,0,0,0,0,0,2.2006,2.2021,2.2146,2.209,2.2105,2.2134,2.2168,2.2172,2.2194,2.2226,2.2231,2.2199,2.226,2.2272,2.2338,2.2372,2.2312,2.2317,2.2513,2.2516,2.2519,2.255,0,0,0,0,0,0,2.2001,2.202,2.2049,2.2091,2.2109,2.2204,2.217,2.2175,2.2203,2.22,2.2244,2.2249,2.2259,2.233,2.2343,2.2378,2.2322,2.251,2.2514,2.2518,2.2546,2.2554,2.2561,0,0,0,0,0,2.1995,2.2055,2.205,2.2066,2.2145,2.2206,2.2216,2.2227,2.2206,2.2235,2.2255,2.2247,2.2366,2.2337,2.2352,2.2389,2.2508,2.2513,2.2518,2.2543,2.2553,2.2561,0,0,0,0,0,0,2.2017,2.206,2.2056,2.2131,2.2165,2.2204,2.2241,2.2237,2.2278,2.2274,2.2285,2.2295,2.2362,2.2382,2.2349,2.2463,2.2434,2.2442,2.2448,2.2457,2.2465,2.2458,2.2326,0,0,0,0,0,2.203,2.2076,2.2111,2.2173,2.2191,2.2213,2.224,2.2245,2.2281,2.2295,2.2321,2.2356,2.24,2.243,2.2473,2.2549,2.2558,2.2582,2.2589,2.2595,2.2602,2.2643,2.2654,2.2538,2.2538,2.2538,0,0,2.2058,2.2087,2.2116,2.2178,2.2205,2.2252,2.2225,2.2276,2.2311,2.2303,2.2367,2.2386,2.2426,2.2497,2.253,2.2516,2.2636,2.2602,2.2606,2.261,2.2649,2.266,2.267,2.2541,2.2541,2.254,0,0,2.2133,2.216,2.2214,2.2242,2.2283,2.2297,2.231,2.235,2.2363,2.2427,2.2422,2.2463,2.254,2.2568,2.2593,2.2677,2.2671,2.2691,2.273,2.2769,2.2778,2.2786,2.2816,2.2826,2.2698,2.2698,2.2698,0,2.2162,2.2233,2.2243,2.2294,2.2321,2.2316,2.2371,2.2397,2.245,2.2469,2.2452,2.2549,2.2575,2.2652,2.2673,2.2693,2.2708,2.2686,2.2776,2.2784,2.2792,2.282,2.2831,2.27,2.27,2.27,2.2699,0,2.2267,2.2315,2.2354,2.2405,2.2437,2.249,2.2507,2.2538,2.254,2.2556,2.2621,2.2652,2.2701,2.272,2.2723,2.2797,2.2787,2.2774,2.2744,2.2805,2.2832,2.2843,2.2703,2.2702,2.2702,2.2701,0,0,2.2358,2.2413,2.2427,2.245,2.2494,2.2532,2.2584,2.2632,2.2658,2.2694,2.2738,2.2803,2.279,2.2818,2.2824,2.2858,2.2922,2.284,2.2841,2.2854,2.3005,2.3015,2.3027,2.2918,2.292,2.2922,2.3001,0,2.2436,2.2529,2.2538,2.2621,2.2665,2.266,2.2705,2.2737,2.2753,2.2793,2.2811,2.2856,2.2837,2.2853,2.2887,2.2907,2.2952,2.2901,2.2958,2.296,2.2948,2.3041,2.3052,2.3125,2.3012,2.3014,2.3015,0,2.2541,2.258,2.2666,2.2703,2.2723,2.2763,2.2807,2.2846,2.2881,2.289,2.2921,2.2922,2.2975,2.2943,2.3016,2.2981,2.3005,2.3018,2.3021,2.3027,2.2991,2.3049,2.3149,2.316,2.3031,2.303,2.3029,0,2.2598,2.2672,2.2733,2.2753,2.2798,2.2826,2.2846,2.288,2.2908,2.2946,2.2964,2.3008,2.3032,2.3066,2.3079,2.3055,2.3151,2.3121,2.3159,2.3159,2.318,2.3178,2.3285,2.3196,2.3195,2.3195,2.3195,0,2.2684,2.2737,2.2759,2.2797,2.2855,2.2866,2.2924,2.2943,2.2972,2.3013,2.3012,2.305,2.3064,2.3104,2.3115,2.3173,2.3184,2.3192,2.3194,2.3192,2.3191,2.3208,2.3203,2.3198,2.3197,2.3197,2.3196,0,2.2758,2.2775,2.2841,2.2878,2.2888,2.293,2.2962,2.2998,2.3012,2.3064,2.3077,2.31,2.3148,2.3163,2.3221,2.3227,2.3295,2.3293,2.3283,2.3283,2.3321,2.3317,2.3442,2.3459,2.3359,2.336,2.336,0,2.2812,2.2852,2.2894,2.2921,2.2942,2.2986,2.3014,2.3025,2.3055,2.3098,2.3128,2.3175,2.3213,2.3289,2.3311,2.3355,2.3353,2.3394,2.336,2.3356,2.3353,2.335,2.3354,2.34,2.3401,2.3402,2.3403,0,2.2906,2.2912,2.2952,2.2996,2.3029,2.3064,2.3098,2.312,2.3137,2.3169,2.3218,2.3247,2.3305,2.3352,2.3396,2.3416,2.3412,2.3413,2.3424,2.3423,2.3415,2.3419,2.33,2.341,2.341,2.3409,2.3409,2.3408,2.2971,2.3006,2.304,2.3085,2.3112,2.3143,2.3178,2.3198,2.3238,2.3286,2.3291,2.3342,2.3376,2.3435,2.3457,2.3498,2.3486,2.3503,2.3507,2.351,2.3513,2.3409,2.3506,2.3506,2.3505,2.3505,2.3505,0,2.3064,2.3085,2.3127,2.3174,2.3209,2.3202,2.3238,2.3268,2.3314,2.3346,2.3383,2.3438,2.3482,2.3508,2.3552,2.358,2.3579,2.3591,2.3589,2.3593,2.3521,2.3507,2.3591,2.3591,2.3591,2.3591,2.3591,2.3591,2.3117,2.3176,2.3186,2.3258,2.3279,2.333,2.3351,2.3379,2.3405,2.3466,2.3503,2.3519,2.3548,2.3594,2.3635,2.3641,2.3657,2.367,2.3675,2.3607,2.3598,2.359,2.3577,2.3674,2.3674,2.3744,2.3745,2.3745]}]]